OKEAN-4
1 23317U 94066A   05132.77262923  .00000668  00000-0  80793-4 0  6235
2 23317 082.5376 290.4016 0020743 252.6165 107.2762 14.82137823570662
NOAA-14
1 23455U 94089A   05132.33161012  .00000210  00000-0  13591-3 0  5932
2 23455 099.0917 180.0716 0010241 102.9507 257.2816 14.13562576534431
SICH-1
1 23657U 95046A   05132.83566221  .00000655  00000-0  80942-4 0  4281
2 23657 082.5296 071.1912 0022526 237.7313 122.1736 14.81154351522724
NOAA-15
1 25338U 98030A   05132.24800853  .00000102  00000-0  62131-4 0   353
2 25338 098.5136 141.6774 0011753 103.1265 257.1227 14.24507179363637
RESURS
1 25394U 98043A   05132.51894620 -.00000043  00000-0 -70097-7 0   858
2 25394 098.5389 202.7425 0000555 237.6983 122.4106 14.24062930355372
FENGYUN1
1 25730U 99025A   05132.41637000  .00000285  00000-0  17914-3 0  4113
2 25730 098.6062 135.6327 0014101 200.0327 160.0305 14.11794778309464
OKEAN-0
1 25860U 99039A   05132.78089972  .00000211  00000-0  39951-4 0  4318
2 25860 097.7598 160.2297 0001093 057.4651 302.6663 14.73242966312798
NOAA-16
1 26536U 00055A   05132.29854654  .00000297  00000-0  18619-3 0  3457
2 26536 099.0117 090.5408 0010850 164.8441 195.3057 14.12236819238997
NOAA-17
1 27453U 02032A   05132.44567338  .00000363  00000-0  17801-3 0  3715
2 27453 098.6608 206.4974 0012542 155.7652 204.4138 14.23662727149755
HUBBLE
1 20580U 90037B   05131.39027196  .00001099  00000-0  73879-4 0  3341
2 20580 028.4663 148.5359 0003983 238.6613 121.3586 14.99703604624712
UARS
1 21701U 91063B   05131.76778907  .00000030  00000-0  20789-4 0 04438
2 21701 056.9822 337.6847 0003861 100.9160 259.2218 15.03819002748016
PO-34
1 25520U 98064B   05131.91077863  .00001623  00000-0  71818-4 0 01973
2 25520 028.4582 194.8183 0005746 186.0058 174.0442 15.16256274361077
ISS
1 25544U 98067A   05132.97377256  .00254190  00000-0  18827-2 0  4610
2 25544 051.6439 081.2424 0005815 117.6498 355.9045 15.71573880370147
WO-39
1 26061U 00004A   03303.41062303  .00002252  00000-0  75720-3 0  9734
2 26061 100.1904 047.3011 0034615 281.6926 078.0378 14.38082544197011
OO-38
1 26063U 00004C   05131.60980027  .00000018  00000-0  26430-4 0 03478
2 26063 100.2212 344.9542 0037249 157.8829 202.3968 14.35715932277054
NO-45
1 26932U 01043D   05132.74498539  .00000066  00000-0  58136-4 0   293
2 26932 067.0588 318.7326 0008119 249.3086 110.7133 14.29483348188738
